Location: Góry Miechowskie
(50.3599°N, 20.1803°E)
Time: 17:53:04
(UTC+00:00)

Vanguard 2 - Visible Passes

Search period start: 12 May 2025 00:00
Search period end: 22 May 2025 00:00
Orbit: 552 x 2901 km, 32.9° (Epoch: 11 May)

Date Brightness Start Highest point End Pass type
(mag) Time Alt. Az. Time Alt. Az. Time Alt. Az.
12 May 10.6 01:09:27 10° WSW 01:23:21 39° S 01:38:35 10° SE visible
12 May 10.4 21:07:44 10° SSW 21:16:56 27° SSE 21:29:02 10° ESE visible
12 May 10.3 23:13:31 10° SW 23:25:40 39° S 23:40:57 10° ESE visible
13 May 10.6 01:21:52 10° WSW 01:35:28 37° SSW 01:50:25 10° SE visible
13 May 10.6 19:18:37 10° SSE 19:21:53 12° SE 19:25:32 10° ESE visible
13 May 10.3 21:19:25 10° SSW 21:28:53 30° SSE 21:41:37 10° ESE visible
13 May 10.3 23:25:42 10° WSW 23:37:48 40° S 23:53:07 10° ESE visible
14 May 10.7 01:34:22 10° WSW 01:47:34 34° SSW 02:02:05 10° SE visible
14 May 10.5 19:28:26 10° SSE 19:33:36 15° SE 19:39:53 10° ESE visible
14 May 10.2 21:31:16 10° SW 21:40:53 32° SSE 21:54:04 10° ESE visible
14 May 10.3 23:37:58 10° WSW 23:49:58 39° S 00:05:11 10° ESE visible
15 May 10.8 01:46:59 10° WSW 01:59:38 31° SSW 02:13:33 10° SSE visible
15 May 10.3 19:39:15 10° S 19:45:24 18° SE 19:53:14 10° ESE visible
15 May 10.1 21:43:15 10° SW 21:52:57 34° SSE 22:06:25 10° ESE visible
15 May 10.4 23:50:18 10° WSW 00:02:08 37° S 00:17:07 10° SE visible
16 May 10.8 01:59:45 10° WSW 02:11:39 27° SSW 02:24:45 10° SSE visible
16 May 10.2 19:50:33 10° S 19:57:15 21° SSE 20:06:10 10° ESE visible
16 May 10.1 21:55:20 10° SW 22:05:04 35° S 22:18:40 10° ESE visible
17 May 10.4 00:02:42 10° WSW 00:14:18 35° S 00:28:55 10° SE visible
17 May 10.1 20:02:08 10° SSW 20:09:10 24° SSE 20:18:51 10° ESE visible
17 May 10.1 22:07:31 10° SW 22:17:12 36° S 22:30:49 10° ESE visible
18 May 10.5 00:15:13 10° WSW 00:26:27 33° SSW 00:40:33 10° SE visible
18 May 10.0 20:13:55 10° SSW 20:21:10 26° SSE 20:31:22 10° ESE visible
18 May 10.1 22:19:47 10° WSW 22:29:23 35° S 22:42:52 10° ESE visible
19 May 10.5 00:27:49 10° WSW 00:38:35 29° SSW 00:51:58 10° SSE visible
19 May 9.9 20:25:52 10° SW 20:33:12 28° SSE 20:43:44 10° ESE visible
19 May 10.1 22:32:07 10° WSW 22:41:34 34° S 22:54:48 10° SE visible
20 May 10.6 00:40:36 10° WSW 00:50:43 26° SSW 01:03:06 10° SSE visible
20 May 9.8 20:37:56 10° SW 20:45:18 29° SSE 20:56:01 10° ESE visible
20 May 10.1 22:44:32 10° WSW 22:53:46 32° S 23:06:34 10° SE visible
21 May 10.7 00:53:35 10° WSW 01:02:49 22° SSW 01:13:53 10° SSE visible
21 May 9.8 20:50:05 10° SW 20:57:27 30° S 21:08:11 10° ESE visible
21 May 10.2 22:57:02 10° WSW 23:05:58 29° SSW 23:18:10 10° SE visible
